Burns Flat, OK

2:36 PM CST on January 18, 2017 (GMT -0600)
Clinton-Sherman

Weather History for KCSM - December, 2012

Change the Weather History Date:

Sunday, December 23, 2012

  Actual Average Record
Temperature  
Mean Temperature 40 °F -  
Max Temperature 52 °F 47 °F 60 °F (1999)
Min Temperature 27 °F 26 °F 12 °F (2004)
Degree Days  
Heating Degree Days 26    
Moisture  
Dew Point 21 °F    
Average Humidity 54    
Maximum Humidity 75    
Minimum Humidity 31    
Precipitation  
Precipitation 0.00 in - - ()
Sea Level Pressure  
Sea Level Pressure 29.95 in    
Wind  
Wind Speed 10 mph (North)    
Max Wind Speed 16 mph    
Max Gust Speed -    
Visibility 10 miles    
Events      
Averages and records for this station are not official NWS values.
T = Trace of Precipitation, MM = Missing Value Source: NWS Daily Summary

Daily Weather History Graph

Daily Weather History Graph

Search for Another Location

Airport or City:

Trip Planner

Search our weather history database for the weather conditions in past years. The results will help you decide how hot, cold, wet, or windy it might be!

Date:

Astronomy

Dec. 23, 2012 Rise Set
Actual Time 7:43 AM CST 5:29 PM CST
Civil Twilight 7:14 AM CST 5:57 PM CST
Nautical Twilight 6:42 AM CST 6:29 PM CST
Astronomical Twilight 6:11 AM CST 7:00 PM CST
Moon 2:17 PM CST (12/23) 3:31 AM CST (12/23)
Length of Visible Light 10h 43m
Length of Day
9h 46m
Waxing Gibbous, 82% of the Moon is Illuminated
Dec 23
Waxing Gibbous
Dec 28
Full
Jan 4
Last Quarter
Jan 11
New
Jan 18
First Quarter

Hourly Weather History & Observations

Time (CST) Temp. Windchill Dew Point Humidity Pressure Visibility Wind Dir Wind Speed Gust Speed Precip Events Conditions
12:53 AM 36.0 °F 29.0 °F 18.0 °F 48% 29.91 in 10.0 mi WSW 9.2 mph - N/A   Clear
1:53 AM 33.1 °F 25.5 °F 16.0 °F 50% 29.91 in 10.0 mi NW 9.2 mph - N/A   Clear
2:53 AM 32.0 °F 23.0 °F 14.0 °F 48% 29.90 in 10.0 mi NNW 11.5 mph - N/A   Clear
3:53 AM 33.1 °F 23.4 °F 16.0 °F 50% 29.92 in 10.0 mi NNW 13.8 mph - N/A   Clear
4:53 AM 32.0 °F 23.0 °F 18.0 °F 56% 29.91 in 10.0 mi North 11.5 mph - N/A   Clear
5:53 AM 30.0 °F 20.0 °F 19.9 °F 66% 29.93 in 10.0 mi North 12.7 mph - N/A   Clear
6:53 AM 28.9 °F 19.8 °F 21.0 °F 72% 29.95 in 10.0 mi North 10.4 mph - N/A   Clear
7:53 AM 27.0 °F 18.7 °F 19.9 °F 75% 29.97 in 10.0 mi NNW 8.1 mph - N/A   Clear
8:53 AM 30.9 °F 19.8 °F 21.0 °F 67% 29.99 in 10.0 mi NNW 16.1 mph - N/A   Clear
9:53 AM 35.1 °F 25.9 °F 21.9 °F 59% 29.99 in 10.0 mi North 13.8 mph - N/A   Clear
10:53 AM 37.0 °F 29.8 °F 24.1 °F 59% 29.98 in 10.0 mi North 10.4 mph - N/A   Clear
11:53 AM 42.1 °F 36.6 °F 24.1 °F 49% 29.93 in 10.0 mi North 9.2 mph - N/A   Clear
12:53 PM 46.0 °F 41.0 °F 23.0 °F 40% 29.91 in 10.0 mi North 10.4 mph - N/A   Clear
1:53 PM 48.9 °F - 23.0 °F 36% 29.89 in 10.0 mi NNW 8.1 mph - N/A   Clear
2:53 PM 52.0 °F - 21.9 °F 31% 29.88 in 10.0 mi North 6.9 mph - N/A   Clear
3:53 PM 52.0 °F - 21.9 °F 31% 29.88 in 10.0 mi NNE 3.5 mph - N/A   Clear
4:53 PM 48.9 °F - 23.0 °F 36% 29.89 in 10.0 mi NNE 5.8 mph - N/A   Clear
5:53 PM 42.1 °F 37.7 °F 21.9 °F 45% 29.92 in 10.0 mi North 6.9 mph - N/A   Clear
6:53 PM 36.0 °F 29.6 °F 21.0 °F 55% 29.97 in 10.0 mi NNE 8.1 mph - N/A   Clear
7:53 PM 37.0 °F 30.4 °F 21.9 °F 54% 30.02 in 10.0 mi North 9.2 mph - N/A   Clear
8:53 PM 30.0 °F 21.1 °F 19.9 °F 66% 30.01 in 10.0 mi North 10.4 mph - N/A   Clear
9:53 PM 30.9 °F 22.8 °F 21.9 °F 69% 30.01 in 10.0 mi North 9.2 mph - N/A   Clear
10:53 PM 27.0 °F 21.6 °F 19.9 °F 75% 30.01 in 10.0 mi NNW 4.6 mph - N/A   Clear
11:53 PM 30.0 °F 22.4 °F 21.0 °F 69% 30.01 in 10.0 mi North 8.1 mph - N/A   Clear